CW5210 Weather Reports


time (UTC)temp
C
wind
direction
speed
KPH
gust
KPH
rain 1hr
cm
rain 24hr
cm
rain mn
cm
humidity
%
barometer
mb
20260502161533 15 0 1.6 4.8 0.00 0.00 0.00 33 1020.6
20260502151536 12 0 0.0 3.2 0.00 0.00 0.00 39 1020.9
20260502123037 3 0 0.0 0.0 0.00 0.00 0.00 71 1020.4
20260502121536 3 0 0.0 0.0 0.00 0.00 0.00 72 1020.3
20260502114534 3 0 0.0 0.0 0.00 0.00 0.00 70 1020.2
20260502113039 3 0 0.0 1.6 0.00 0.00 0.00 67 1020.3
20260502111530 4 0 0.0 0.0 0.00 0.00 0.00 63 1020.4
20260502110038 4 0 0.0 0.0 0.00 0.00 0.00 61 1020.5
20260502104537 5 0 0.0 0.0 0.00 0.00 0.00 59 1020.6
20260502103034 5 0 0.0 1.6 0.00 0.00 0.00 58 1020.4
20260502101535 6 0 0.0 1.6 0.00 0.00 0.00 56 1020.1
20260502071533 7 0 0.0 0.0 0.00 0.00 0.00 60 1019.8
20260502070054 7 0 0.0 3.2 0.00 0.00 0.00 61 1020.0
20260502064534 7 0 0.0 3.2 0.00 0.00 0.00 60 1019.8
20260502063035 7 0 0.0 1.6 0.00 0.00 0.00 58 1019.8
20260502061537 8 0 0.0 1.6 0.00 0.00 0.00 54 1019.9
20260502060042 8 0 0.0 0.0 0.00 0.00 0.00 52 1019.8
20260502054540 9 0 0.0 3.2 0.00 0.00 0.00 49 1019.8
20260502053031 9 0 0.0 1.6 0.00 0.00 0.00 49 1019.7
20260502051537 9 0 0.0 0.0 0.00 0.00 0.00 50 1019.7
20260502050032 10 0 0.0 1.6 0.00 0.00 0.00 49 1019.7
20260502044531 10 0 0.0 0.0 0.00 0.00 0.00 47 1019.8
20260502043037 10 0 0.0 1.6 0.00 0.00 0.00 47 1019.8
20260502041556 11 0 0.0 0.0 0.00 0.00 0.00 43 1019.6
20260502040048 11 0 0.0 0.0 0.00 0.00 0.00 43 1019.5
20260502034533 12 0 0.0 0.0 0.00 0.00 0.00 42 1019.4
20260502033034 12 0 0.0 0.0 0.00 0.00 0.00 39 1019.2
20260502031535 13 0 0.0 1.6 0.00 0.00 0.00 38 1019.1
20260502030049 13 0 0.0 6.4 0.00 0.00 0.00 36 1018.7
20260502024532 14 296 0.0 4.8 0.00 0.00 0.00 37 1018.8
20260502023046 14 0 0.0 3.2 0.00 0.00 0.00 39 1018.7
20260502021532 15 0 0.0 3.2 0.00 0.00 0.00 39 1018.7
20260502020036 15 0 0.0 4.8 0.00 0.00 0.00 39 1018.5
20260502014539 16 290 0.0 11.3 0.00 0.00 0.00 37 1018.3
20260502013032 16 0 3.2 16.1 0.00 0.00 0.00 36 1018.3
20260502011538 17 313 3.2 14.5 0.00 0.00 0.00 34 1018.1
20260502010034 17 310 4.8 19.3 0.00 0.00 0.00 33 1018.1
20260502004534 18 325 3.2 17.7 0.00 0.00 0.00 28 1018.1
20260502003033 18 360 1.6 12.9 0.00 0.00 0.00 27 1018.1
20260502001538 18 0 3.2 17.7 0.00 0.00 0.00 26 1018.2
20260502000049 18 311 3.2 12.9 0.00 0.00 0.00 26 1018.3
20260501234530 19 287 3.2 14.5 0.00 0.00 0.00 25 1018.3
20260501233038 19 54 3.2 14.5 0.00 0.00 0.00 24 1018.4
20260501231533 19 333 3.2 16.1 0.00 0.00 0.00 25 1018.4
20260501230105 19 26 4.8 17.7 0.00 0.00 0.00 25 1018.5
20260501224544 19 340 4.8 14.5 0.00 0.00 0.00 23 1018.6
20260501223031 18 348 6.4 20.9 0.00 0.00 0.00 26 1018.7
20260501221530 18 352 3.2 14.5 0.00 0.00 0.00 25 1018.9
20260501220038 18 337 6.4 22.5 0.00 0.00 0.00 27 1019.0
20260501214533 18 0 4.8 19.3 0.00 0.00 0.00 26 1019.1
20260501213036 18 344 4.8 22.5 0.00 0.00 0.00 27 1019.1
20260501211536 18 38 3.2 16.1 0.00 0.00 0.00 27 1019.2
20260501210030 18 329 4.8 22.5 0.00 0.00 0.00 25 1019.3
20260501204533 18 61 3.2 19.3 0.00 0.00 0.00 27 1019.2
20260501203033 18 16 3.2 17.7 0.00 0.00 0.00 25 1019.2
20260501201531 18 317 3.2 19.3 0.00 0.00 0.00 27 1019.2
20260501200032 19 275 4.8 19.3 0.00 0.00 0.00 25 1019.3
20260501194532 18 226 1.6 14.5 0.00 0.00 0.00 26 1019.4
20260501193036 18 277 3.2 12.9 0.00 0.00 0.00 22 1019.5
20260501191535 18 0 1.6 12.9 0.00 0.00 0.00 23 1019.7
20260501190033 18 313 0.0 6.4 0.00 0.00 0.00 25 1020.0
20260501184531 17 0 0.0 6.4 0.00 0.00 0.00 23 1020.1
20260501183030 17 344 0.0 14.5 0.00 0.00 0.00 26 1020.2
20260501181532 17 323 3.2 14.5 0.00 0.00 0.00 22 1020.2
20260501180035 17 146 0.0 6.4 0.00 0.00 0.00 26 1020.4
20260501174537 17 100 1.6 12.9 0.00 0.00 0.00 29 1020.6
20260501173032 16 0 3.2 17.7 0.00 0.00 0.00 21 1020.6
20260501171531 15 76 3.2 20.9 0.00 0.00 0.00 27 1020.8
20260501170030 15 70 4.8 19.3 0.00 0.00 0.00 23 1020.9
20260501164544 15 97 1.6 17.7 0.00 0.00 0.00 26 1020.9
20260501163034 14 30 4.8 16.1 0.00 0.00 0.00 27 1020.8